Cleveland, TX

1:16 PM CST on December 14, 2017 (GMT -0600)
Cleveland

Weather History for K6R3 - April, 2013

Change the Weather History Date:

Saturday, April 6, 2013

  Actual Average (KCXO) Record (KCXO)
Temperature  
Mean Temperature 58 °F -  
Max Temperature 74 °F 74 °F 84 °F (1999)
Min Temperature 43 °F 53 °F 39 °F (2009)
Degree Days  
Heating Degree Days 6    
Growing Degree Days 8 (Base 50)    
Moisture  
Dew Point 51 °F    
Average Humidity 76    
Maximum Humidity 94    
Minimum Humidity 48    
Precipitation  
Precipitation 0.00 in - - ()
Sea Level Pressure  
Sea Level Pressure 30.05 in    
Wind  
Wind Speed - (North)    
Max Wind Speed -    
Max Gust Speed -    
Visibility 9 miles    
Events      
Averages and records for this station are not official NWS values.
T = Trace of Precipitation, MM = Missing Value Source: NWS Daily Summary

Daily Weather History Graph

Daily Weather History Graph

Search for Another Location

Airport or City:

Trip Planner

Search our weather history database for the weather conditions in past years. The results will help you decide how hot, cold, wet, or windy it might be!

Date:

Astronomy

Apr. 06, 2013 Rise Set
Actual Time 7:02 AM CDT 7:42 PM CDT
Civil Twilight 6:38 AM CDT 8:06 PM CDT
Nautical Twilight 6:10 AM CDT 8:35 PM CDT
Astronomical Twilight 5:40 AM CDT 9:04 PM CDT
Moon 4:32 AM CDT (4/6) 4:24 PM CDT (4/6)
Length of Visible Light 13h 27m
Length of Day
12h 39m
Waning Crescent, 15% of the Moon is Illuminated
Apr 6
Waning Crescent
Apr 10
New
Apr 18
First Quarter
Apr 25
Full
May 2
Last Quarter

Hourly Weather History & Observations

Time (CDT) Temp. Dew Point Humidity Pressure Visibility Wind Dir Wind Speed Gust Speed Precip Events Conditions
12:15 AM 51.6 °F 47.7 °F 86% 30.13 in 10.0 mi North - - N/A   Clear
12:35 AM 48.7 °F 45.9 °F 90% 30.12 in 10.0 mi North - - N/A   Clear
12:55 AM 50.2 °F 47.7 °F 91% 30.11 in 10.0 mi North - - N/A   Clear
1:15 AM 48.7 °F 46.2 °F 91% 30.10 in 10.0 mi North - - N/A   Clear
1:35 AM 48.7 °F 46.0 °F 90% 30.11 in 10.0 mi North - - N/A   Clear
1:55 AM 48.0 °F 45.7 °F 92% 30.10 in 7.0 mi North - - N/A   Clear
2:15 AM 47.3 °F 45.1 °F 92% 30.09 in 7.0 mi North - - N/A   Clear
2:35 AM 46.4 °F 44.2 °F 92% 30.08 in 4.0 mi North - - N/A   Clear
2:55 AM 46.4 °F 43.9 °F 91% 30.07 in 10.0 mi North - - N/A   Clear
3:15 AM 46.2 °F 43.9 °F 92% 30.06 in 5.0 mi North - - N/A   Clear
3:35 AM 45.3 °F 43.2 °F 92% 30.06 in 3.0 mi North - - N/A   Clear
3:55 AM 44.6 °F 42.4 °F 92% 30.06 in 2.5 mi North - - N/A   Clear
4:15 AM 44.2 °F 42.3 °F 93% 30.05 in 5.0 mi North - - N/A   Clear
4:35 AM 44.6 °F 42.8 °F 93% 30.05 in 5.0 mi North - - N/A   Clear
4:55 AM 44.1 °F 42.1 °F 93% 30.07 in 7.0 mi North - - N/A   Clear
5:15 AM 43.3 °F 41.4 °F 93% 30.06 in 10.0 mi North - - N/A   Clear
5:35 AM 43.2 °F 41.4 °F 93% 30.05 in 7.0 mi North - - N/A   Clear
5:55 AM 43.7 °F 41.7 °F 93% 30.06 in 10.0 mi North - - N/A   Clear
6:15 AM 44.2 °F 42.4 °F 93% 30.07 in 5.0 mi North - - N/A   Clear
6:35 AM 43.0 °F 41.2 °F 93% 30.07 in 5.0 mi North - - N/A   Clear
6:55 AM 43.2 °F 41.2 °F 93% 30.08 in 10.0 mi North - - N/A   Clear
7:15 AM 44.1 °F 42.1 °F 93% 30.08 in 5.0 mi North - - N/A   Clear
7:35 AM 44.8 °F 43.0 °F 93% 30.09 in 3.0 mi North - - N/A   Clear
7:55 AM 46.6 °F 44.6 °F 93% 30.09 in 5.0 mi North - - N/A   Clear
8:15 AM 49.8 °F 48.0 °F 94% 30.09 in 5.0 mi North - - N/A   Clear
8:35 AM 52.7 °F 50.5 °F 92% 30.09 in 7.0 mi North - - N/A   Clear
8:55 AM 55.6 °F 52.7 °F 90% 30.09 in 10.0 mi North - - N/A   Clear
9:15 AM 57.4 °F 53.6 °F 87% 30.10 in 10.0 mi North - - N/A   Clear
9:35 AM 60.8 °F 54.9 °F 81% 30.10 in 10.0 mi North - - N/A   Clear
9:55 AM 63.0 °F 54.7 °F 74% 30.10 in 10.0 mi North - - N/A   Clear
10:15 AM 66.7 °F 55.0 °F 66% 30.10 in 10.0 mi North - - N/A   Clear
10:35 AM 67.3 °F 55.0 °F 65% 30.10 in 10.0 mi North - - N/A   Mostly Cloudy
10:55 AM 67.3 °F 53.8 °F 62% 30.11 in 10.0 mi North - - N/A   Overcast
11:15 AM 67.6 °F 52.9 °F 59% 30.10 in 10.0 mi North - - N/A   Mostly Cloudy
11:55 AM 71.1 °F 52.9 °F 53% 30.10 in 10.0 mi North - - N/A   Mostly Cloudy
12:15 PM 72.1 °F 53.1 °F 51% 30.09 in 10.0 mi North - - N/A   Mostly Cloudy
12:35 PM 72.1 °F 52.2 °F 49% 30.08 in 10.0 mi North - - N/A   Scattered Clouds
12:55 PM 73.2 °F 52.7 °F 48% 30.07 in 10.0 mi North - - N/A   Scattered Clouds
1:35 PM 71.4 °F 52.9 °F 52% 30.06 in 10.0 mi North - - N/A   Mostly Cloudy
1:55 PM 73.2 °F 53.2 °F 49% 30.06 in 10.0 mi North - - N/A   Mostly Cloudy
2:35 PM 73.4 °F 53.6 °F 50% 30.03 in 10.0 mi North - - N/A   Mostly Cloudy
2:55 PM 73.4 °F 54.1 °F 51% 30.02 in 10.0 mi North - - N/A   Mostly Cloudy
3:15 PM 74.7 °F 54.5 °F 49% 30.02 in 10.0 mi North - - N/A   Mostly Cloudy
3:35 PM 74.7 °F 54.7 °F 50% 30.01 in 10.0 mi North - - N/A   Mostly Cloudy
3:55 PM 74.3 °F 54.9 °F 51% 30.00 in 10.0 mi North - - N/A   Mostly Cloudy
4:15 PM 72.5 °F 54.5 °F 53% 29.99 in 10.0 mi North - - N/A   Mostly Cloudy
4:35 PM 73.9 °F 55.0 °F 52% 29.99 in 10.0 mi North - - N/A   Mostly Cloudy
4:55 PM 73.0 °F 55.2 °F 53% 29.99 in 10.0 mi North - - N/A   Mostly Cloudy
5:15 PM 73.0 °F 55.2 °F 53% 29.99 in 10.0 mi North - - N/A   Mostly Cloudy
5:35 PM 72.7 °F 55.4 °F 55% 29.98 in 10.0 mi North - - N/A   Scattered Clouds
5:55 PM 71.8 °F 55.2 °F 56% 29.97 in 10.0 mi North - - N/A   Scattered Clouds
6:15 PM 71.2 °F 54.9 °F 56% 29.97 in 10.0 mi North - - N/A   Clear
6:35 PM 70.5 °F 55.6 °F 59% 29.97 in 10.0 mi North - - N/A   Clear
6:55 PM 69.1 °F 55.8 °F 62% 29.97 in 10.0 mi North - - N/A   Scattered Clouds
7:35 PM 66.4 °F 55.2 °F 67% 29.97 in 10.0 mi North - - N/A   Clear
7:55 PM 65.5 °F 55.0 °F 69% 29.97 in 10.0 mi North - - N/A   Clear
8:15 PM 63.7 °F 55.2 °F 74% 29.98 in 10.0 mi North - - N/A   Clear
8:35 PM 63.1 °F 55.4 °F 76% 29.98 in 10.0 mi North - - N/A   Clear
8:55 PM 62.8 °F 55.4 °F 77% 29.98 in 10.0 mi North - - N/A   Clear
9:15 PM 62.4 °F 55.6 °F 78% 29.98 in 10.0 mi North - - N/A   Clear
9:35 PM 61.7 °F 55.6 °F 80% 29.98 in 10.0 mi North - - N/A   Clear
9:55 PM 61.2 °F 55.6 °F 82% 29.99 in 10.0 mi North - - N/A   Clear
10:15 PM 60.6 °F 55.6 °F 83% 30.00 in 10.0 mi North - - N/A   Clear
10:35 PM 59.9 °F 55.6 °F 86% 30.00 in 10.0 mi North - - N/A   Clear
10:55 PM 58.6 °F 55.0 °F 88% 30.00 in 10.0 mi North - - N/A   Clear
11:15 PM 58.1 °F 55.0 °F 90% 30.00 in 10.0 mi North - - N/A   Clear
11:35 PM 57.6 °F 54.7 °F 90% 30.00 in 10.0 mi North - - N/A   Mostly Cloudy
11:55 PM 58.6 °F 56.1 °F 91% 30.00 in 10.0 mi North - - N/A   Mostly Cloudy